This is the latest recevied weather packets stored in our database for station/object HASTNG-WX. If no packets are shown the sender has not sent any weather packets the latest 10 day(s).
| Time | Temp. | Humidity | Pressure | Rain* | Wind** | Luminosity | Snow |
|---|---|---|---|---|---|---|---|
| 1777896934 | 10.56° C | 77% | 974.7 hPa | 0 mm | - | - | - |
| 1777896066 | 10° C | 77% | 974.7 hPa | 0 mm | - | - | - |
| 1777895134 | 8.89° C | 82% | 973.4 hPa | 0 mm | - | - | - |
| 1777894251 | 7.78° C | 84% | 974 hPa | 0 mm | - | - | - |
| 1777893334 | 7.78° C | 84% | 974 hPa | 0 mm | - | - | - |
| 1777892463 | 7.22° C | 84% | 974 hPa | 0 mm | - | - | - |
| 1777891534 | 7.22° C | 80% | 974 hPa | 0 mm | - | - | - |
| 1777890653 | 7.22° C | 81% | 974 hPa | 0 mm | - | - | - |
| 1777889731 | 7.78° C | 81% | 974.1 hPa | 0 mm | - | - | - |
| 1777888862 | 7.78° C | 81% | 974.1 hPa | 0 mm | - | - | - |
| 1777887934 | 7.78° C | 78% | 974.4 hPa | 0 mm | - | - | - |
| 1777887053 | 8.33° C | 78% | 974.1 hPa | 0 mm | - | - | - |
| 1777886134 | 8.33° C | 78% | 974.2 hPa | 0 mm | - | - | - |
| 1777885266 | 8.33° C | 78% | 973.7 hPa | 0 mm | - | - | - |
| 1777884333 | 8.33° C | 73% | 974.4 hPa | 0 mm | - | - | - |
| 1777883447 | 8.89° C | 73% | 974.4 hPa | 0 mm | - | - | - |
| 1777882533 | 8.89° C | 73% | 974.4 hPa | 0 mm | - | - | - |
| 1777881662 | 8.89° C | 77% | 974.5 hPa | 0 mm | - | - | - |
| 1777880733 | 8.89° C | 73% | 975.4 hPa | 0 mm | - | - | - |
| 1777879851 | 8.89° C | 73% | 975.4 hPa | 0 mm | - | - | - |
| 1777878934 | 8.89° C | 73% | 975.3 hPa | 0 mm | - | - | - |
| 1777878060 | 8.89° C | 73% | 975.3 hPa | 0 mm | - | - | - |
| 1777877133 | 8.33° C | 74% | 976.8 hPa | 0 mm | - | - | - |
| 1777876250 | 8.33° C | 74% | 976.8 hPa | 0 mm | - | - | - |
| 1777875333 | 8.33° C | 74% | 976.8 hPa | 0 mm | - | - | - |
* Rain latest hour (hover to see other rain measurements)
** Current wind speed in m/s (hover to see current wind gust speed)